Back to catalog

STARLINK-33711

AliveCommunicationsVLEO
NORAD 63404·PAYLOAD·🇺🇸 United States

Launched Mar 31, 2025 from Cape Canaveral Space Force Station

Loading…

Next Passes (next 24 hours)

TLE

FreshSource: CelesTrak SupGP

Epoch: Sep 14, 2026, 21:10 UTC

1 63404C 25065F   26257.88243056 -.00018929  00000+0 -68570-3 0  2579
2 63404  42.9991 118.1894 0001368 269.9004 303.0459 15.27584035    18

Track STARLINK-33711 in real time with AllMySat

Download on the App Store